Presure
181 181 187 185 146 199 199 203 200 203 204 205 204 198 193 193 214 205 208 142 166 134 205 207 181 199 207 211 212 210 138 144 166 136 142 189 179 171 171 160 159 165 182 181 176
196 193 181 191 192 193 203 182 212 200 213 201 213 188 191 225 224 218 227 215 234 216 201 183 181 199 198 200 186 188 208 154 157 181 151 141 139 180 175 174 166 168 168 168 164
184 181 199 181 211 214 210 205 216 214 215 220 223 222 232 227 252 242 231 247 242 235 250 243 214 218 180 185 176 194 186 201 188 145 152 146 158 138 179 172 174 176 176 176 157
205 208 216 215 213 209 171 211 211 218 229 249 242 245 280 310 374 335 303 289 261 267 291 283 266 282 210 204 204 200 200 171 208 199 185 146 129 168 133 136 140 179 176 178 179
202 192 204 217 213 193 165 200 234 235 256 295 323 342 346 322 309 317 324 258 328 326 321 304 381 278 262 265 226 174 172 192 199 191 209 196 144 143 134 154 137 144 176 184 184
220 228 229 231 227 225 234 237 266 292 259 357 306 335 342 323 270 262 271 299 300 292 278 278 273 264 271 266 223 143 125 219 197 202 187 222 203 175 138 133 173 156 149 161 183
232 231 228 227 232 244 249 287 297 306 290 309 309 337 319 271 302 295 296 297 290 287 275 267 279 287 374 291 258 252 253 213 213 193 205 198 214 205 205 187 138 166 153 154 156
236 230 237 235 231 248 242 278 260 294 287 272 324 351 329 323 318 320 305 281 286 290 286 272 283 274 289 247 300 246 254 245 224 214 189 207 201 134 211 205 207 141 162 172 157
234 251 248 254 244 239 272 256 283 301 307 367 372 354 352 431 434 435 435 378 326 314 298 286 281 276 268 377 368 253 258 231 215 216 217 215 200 173 177 164 210 137 151 192 168
248 240 244 240 240 256 269 261 290 283 330 369 449 460 417 391 393 388 406 391 399 420 385 338 300 274 265 250 267 274 261 238 241 221 217 200 191 213 213 204 197 208 141 142 193
242 236 237 236 240 252 267 278 284 282 367 419 412 393 377 373 371 368 360 356 415 391 407 382 385 302 267 260 263 345 349 237 240 230 219 209 225 145 216 214 199 140 207 182 144
230 233 226 234 242 235 264 307 291 322 342 438 429 333 397 414 326 422 411 357 368 455 366 355 373 326 286 272 265 290 259 238 255 240 229 243 228 231 160 219 211 205 215 194 228
251 218 228 234 239 247 261 284 339 339 366 417 395 393 394 387 385 294 343 357 376 419 362 326 350 349 333 281 265 255 263 300 323 222 230 240 244 221 240 232 232 216 210 208 203
161 223 216 229 237 259 259 268 337 333 395 391 371 371 377 365 356 353 351 309 439 380 357 327 353 350 335 384 278 259 254 250 318 344 337 309 246 247 224 224 236 231 230 209 217
234 223 218 229 235 243 264 269 342 325 413 362 362 353 363 354 345 335 335 358 267 357 313 329 338 341 331 352 360 275 258 258 252 255 340 339 246 234 221 221 220 234 199 229 232
240 228 224 234 233 241 264 283 352 305 361 353 347 349 350 347 336 327 319 367 378 347 300 333 335 339 327 342 358 338 273 264 243 264 279 335 338 330 254 243 218 235 222 223 233
248 233 226 235 240 245 266 283 336 345 367 335 341 353 335 330 330 328 318 340 350 333 283 319 326 331 350 353 347 343 324 261 250 249 242 257 345 326 315 325 250 226 222 227 236
232 222 214 231 236 251 288 350 323 349 361 347 336 343 330 321 320 316 313 315 352 321 300 297 316 317 338 341 338 335 335 314 274 243 238 208 329 245 317 311 319 318 306 228 229
239 235 235 243 243 241 252 339 304 375 362 346 340 338 330 307 302 300 305 304 311 343 307 311 312 309 304 345 345 346 344 332 306 291 249 244 251 239 275 314 249 314 310 302 247
239 218 233 231 258 262 257 324 325 348 357 352 343 338 323 332 360 371 362 305 306 344 315 304 296 297 325 323 326 327 331 339 340 286 277 240 246 244 327 240 323 315 304 299 268
214 237 240 238 257 258 302 312 379 338 356 365 348 334 315 360 341 372 359 352 306 314 321 299 273 279 297 324 321 325 323 330 319 282 277 260 257 243 255 293 333 341 344 345 352
241 225 239 237 231 300 318 294 308 357 373 359 343 329 311 354 347 349 367 336 309 320 318 308 288 270 272 314 319 321 329 322 323 326 324 274 263 273 260 248 244 262 265 267 298
248 244 252 242 244 297 331 346 291 431 389 371 336 327 315 348 351 336 342 331 308 314 320 310 293 277 286 309 304 315 321 326 322 319 315 319 319 319 330 323 308 268 257 253 255
221 238 246 237 256 304 329 347 393 430 390 366 327 322 351 350 347 324 339 333 304 303 321 311 289 277 272 282 299 296 299 311 315 309 312 307 315 320 321 323 326 330 286 301 314
229 236 253 239 288 318 300 319 440 408 382 362 317 315 359 342 338 326 336 329 315 299 294 318 308 289 274 264 257 295 296 296 295 306 307 310 310 315 315 317 321 328 335 337 335
238 234 252 234 295 329 352 310 428 424 408 323 315 343 365 334 345 327 326 341 318 323 301 296 313 299 287 278 264 268 270 273 303 307 302 305 305 313 319 322 328 317 317 323 322
237 229 244 272 307 309 333 448 424 392 383 318 324 362 352 340 338 325 325 321 335 321 310 307 288 293 304 293 283 270 259 261 271 306 304 306 314 315 320 302 301 294 300 312 322
Wind_Speed
71 72 74 71 59 75 75 75 77 78 80 81 80 79 76 78 84 86 90 69 78 73 97 97 88 94 92 89 89 88 68 73 80 62 63 76 71 69 68 64 64 63 67 63 58
76 77 73 77 79 81 82 80 85 85 88 88 85 77 81 84 83 86 92 95 96 100 92 93 93 99 94 92 85 87 86 80 79 85 68 61 60 73 72 71 69 69 67 63 59
76 75 82 78 84 86 87 88 92 92 94 94 94 92 95 87 95 97 95 100 101 103 104 103 104 105 84 86 88 89 84 95 90 73 72 66 68 63 74 71 73 74 72 68 62
81 83 84 86 87 88 69 94 96 97 102 104 100 98 105 100 81 94 98 95 93 95 94 97 101 99 102 104 104 101 97 86 98 94 87 70 63 75 64 66 64 76 74 73 70
78 81 84 88 91 84 71 91 104 102 105 102 86 76 74 80 78 80 77 68 80 80 83 84 91 96 97 97 95 92 89 95 98 90 95 91 73 72 67 74 64 66 75 77 74
81 83 85 89 93 97 99 98 105 95 100 69 77 68 65 65 77 73 69 72 71 73 71 75 85 94 99 99 92 79 68 111 98 97 90 97 95 85 74 69 78 71 67 69 76
78 81 83 89 94 94 91 85 79 76 74 72 71 67 61 79 71 73 74 76 73 74 72 75 78 82 87 98 98 94 92 106 109 96 103 95 96 96 96 88 70 76 72 71 67
80 84 88 89 90 92 86 83 80 77 75 79 68 66 59 63 63 66 69 74 76 77 75 75 77 79 84 90 100 96 95 101 107 109 96 106 98 72 98 93 94 71 76 77 72
77 81 83 84 87 81 84 75 84 80 78 70 67 65 60 56 54 53 52 58 68 74 78 77 74 76 81 76 85 98 94 101 108 109 108 110 102 90 86 77 95 73 76 89 78
67 69 76 84 85 82 87 77 89 80 79 72 61 55 53 50 46 43 44 46 48 50 59 68 75 72 75 80 78 92 97 100 103 112 111 101 93 108 105 98 89 96 75 75 91
67 71 77 85 84 84 87 92 88 77 73 59 54 51 48 44 40 43 41 43 40 48 51 52 56 68 74 79 85 77 81 101 105 110 108 102 107 74 112 109 95 77 94 85 78
69 74 83 86 91 77 94 114 96 85 75 49 45 48 39 30 38 23 23 36 37 36 44 49 49 62 76 78 79 81 95 100 103 105 106 104 109 104 80 112 109 100 105 89 102
74 78 83 88 90 89 99 108 96 84 72 46 42 37 33 23 22 38 29 28 31 31 38 48 47 51 60 76 78 80 83 82 84 99 105 106 109 109 110 114 112 110 103 99 97
55 80 84 87 91 104 100 102 98 83 56 44 43 35 25 21 20 18 20 31 18 30 38 45 45 44 51 49 74 76 80 86 79 79 84 94 108 108 107 105 110 111 111 98 106
77 82 85 88 88 89 102 104 97 83 42 46 40 34 21 18 17 16 23 15 37 34 37 39 38 39 44 49 54 76 79 80 83 85 74 77 103 112 104 103 103 109 82 107 110
81 83 89 92 95 93 107 112 89 82 52 45 38 28 18 14 16 15 21 19 24 35 36 35 34 36 44 46 50 61 74 74 79 77 76 69 73 74 103 105 103 112 103 99 108
87 83 88 95 97 99 110 104 86 65 46 49 39 24 17 15 14 16 18 19 24 28 39 33 33 33 37 42 48 53 61 71 75 75 77 76 64 67 76 78 102 108 103 106 103
87 86 84 96 93 101 103 92 85 61 43 41 35 26 17 16 14 16 18 18 21 30 36 34 32 33 32 36 43 48 50 57 67 73 74 73 58 83 69 73 76 82 91 105 104
90 91 95 102 103 97 104 92 83 50 41 39 32 28 21 21 20 22 24 22 22 28 31 30 29 31 36 33 37 37 39 46 54 58 70 73 71 81 75 68 89 76 82 88 105
89 88 99 99 106 109 106 92 76 58 45 35 30 25 23 16 11 14 24 24 24 26 32 31 32 32 27 30 32 35 38 38 40 54 58 71 70 72 55 79 66 71 75 79 93
92 98 100 101 107 104 97 88 60 61 45 30 25 24 23 11 19 8 23 21 28 25 32 37 41 36 31 29 31 32 34 33 40 50 54 61 63 70 66 57 54 55 56 58 59
96 100 103 102 96 108 99 82 75 53 35 28 22 23 23 16 12 9 15 26 27 24 34 37 36 38 36 29 28 28 28 32 32 32 35 54 58 57 62 66 67 64 65 65 56
92 100 104 103 106 106 100 85 74 23 25 22 22 21 21 20 19 18 20 27 26 24 31 34 31 34 33 27 25 24 26 28 30 33 35 34 36 40 38 41 46 60 65 68 68
101 103 108 103 109 103 93 80 43 18 19 19 21 20 18 23 24 20 20 25 26 25 25 30 36 38 38 35 31 30 29 28 29 32 34 36 36 36 36 38 39 40 50 48 48
104 109 106 107 102 105 88 80 21 18 15 17 20 20 25 26 29 25 23 26 28 24 26 30 35 34 35 36 37 31 29 30 30 30 30 33 33 32 32 32 33 34 31 28 27
109 110 111 105 105 100 83 81 20 12 12 18 19 16 24 26 34 27 24 21 27 28 29 26 27 33 34 34 35 32 32 33 29 30 30 28 32 27 28 28 26 21 23 26 30
110 106 106 102 108 94 83 18 14 10 11 19 19 21 24 34 32 26 25 23 25 32 29 29 25 28 35 37 37 36 36 34 30 27 26 26 23 21 19 20 23 23 24 22 18
Wind_Direction
294 293 291 290 294 287 286 284 280 277 274 274 272 268 265 263 264 260 259 262 256 259 252 251 250 249 247 244 244 242 247 245 245 245 246 239 240 243 240 243 247 244 240 240 236
290 291 292 292 290 287 285 284 283 279 278 274 275 273 272 270 268 267 265 260 262 254 252 254 251 249 250 249 245 246 241 245 243 244 244 244 244 239 240 240 246 245 242 241 239
293 292 291 290 290 291 288 286 286 281 280 280 281 280 278 274 275 269 265 263 261 261 260 252 248 245 251 252 246 249 244 241 242 243 241 240 241 244 239 240 240 243 245 242 243
291 292 293 293 291 289 293 287 285 284 284 285 285 285 282 282 275 268 267 265 262 260 257 251 253 250 246 247 245 247 245 244 241 242 242 239 241 240 244 245 245 239 244 244 243
295 295 293 294 291 292 299 291 288 289 292 293 288 283 284 281 274 272 267 259 261 259 255 253 245 245 244 241 240 243 242 246 245 244 241 242 239 237 242 240 246 244 241 243 244
295 294 293 293 291 290 293 297 296 301 297 298 290 287 284 277 279 276 271 268 262 259 252 249 245 242 241 238 241 241 247 238 246 244 243 237 241 240 238 242 239 241 243 244 243
297 296 296 295 295 301 302 317 314 309 301 300 295 290 286 280 274 271 270 267 264 259 255 250 245 242 237 237 237 235 231 240 239 245 242 243 237 240 240 241 239 238 240 241 243
300 298 299 299 298 302 306 322 308 313 305 299 300 295 289 278 274 269 264 263 260 257 253 251 247 242 238 241 235 236 229 228 234 238 242 241 242 236 239 240 239 240 238 239 241
301 305 304 307 305 311 325 319 326 320 317 306 301 297 290 287 279 273 268 259 251 250 252 249 246 241 239 233 234 232 229 230 235 236 235 235 241 238 238 234 239 238 239 242 238
312 308 310 306 311 322 329 327 330 324 319 313 303 298 294 287 282 273 266 259 254 248 243 242 242 239 237 234 234 234 229 227 226 233 236 238 241 241 242 243 241 240 239 236 243
318 313 314 313 317 324 330 333 333 326 317 312 308 303 296 291 279 266 260 255 251 241 237 236 236 236 233 231 230 228 230 228 228 229 236 240 234 240 238 239 244 239 242 241 235
319 317 314 319 323 319 332 333 334 332 328 319 313 307 304 292 280 269 258 253 247 230 234 234 233 231 232 230 230 228 226 230 230 229 230 230 232 237 237 238 241 244 242 241 237
327 315 319 321 324 330 332 335 335 334 326 324 318 311 302 291 277 270 260 253 239 221 228 231 230 229 229 231 229 227 229 230 232 234 232 230 226 236 229 234 235 241 244 245 245
317 319 319 323 325 329 334 337 335 334 326 325 321 313 303 285 272 264 262 249 223 214 219 228 228 229 224 220 230 229 228 228 231 232 234 235 227 228 236 236 234 236 236 244 243
327 321 323 323 328 331 334 337 335 334 330 328 325 318 309 282 269 257 259 249 248 213 224 225 229 228 225 221 219 228 228 227 228 231 233 235 230 231 238 241 241 236 240 239 238
328 324 324 325 329 332 334 335 333 335 330 329 328 315 309 283 261 242 253 248 219 214 222 225 227 225 220 218 217 221 228 229 227 229 230 235 236 233 234 237 241 235 244 241 240
331 328 326 326 327 331 333 334 333 332 328 330 325 314 301 279 259 242 233 228 218 218 220 219 220 222 222 218 219 221 225 227 228 227 227 229 235 232 235 237 234 241 244 243 240
328 329 329 328 332 332 337 337 335 332 326 325 322 311 291 271 256 244 232 225 218 213 217 215 221 218 218 219 221 223 227 227 227 227 227 233 231 227 234 237 237 237 236 242 242
330 328 329 326 330 335 336 338 336 326 324 319 316 308 292 274 258 242 236 228 224 220 217 217 218 219 215 215 222 222 225 226 225 224 228 229 229 229 231 235 235 239 238 238 237
329 332 326 331 330 332 333 337 335 329 326 319 309 306 294 278 231 221 223 226 218 220 213 213 214 213 217 213 217 217 222 223 225 222 224 229 230 231 232 232 236 240 241 241 239
332 326 326 331 330 334 336 336 331 330 324 315 304 302 291 235 245 257 218 212 214 212 206 212 215 209 215 213 215 218 220 220 221 220 223 227 229 232 232 234 236 239 241 244 246
327 333 328 331 335 338 336 335 334 324 318 311 299 298 293 219 226 182 180 195 210 205 205 211 212 213 214 212 211 213 215 217 216 218 222 224 228 229 232 234 236 235 238 240 244
327 325 326 331 331 339 335 335 334 314 308 298 295 293 296 216 188 195 190 196 207 203 207 211 211 214 215 208 208 207 208 205 209 213 218 223 227 231 234 237 237 236 239 242 243
331 328 327 335 330 338 335 334 330 309 297 290 294 293 224 208 188 216 195 198 209 203 207 205 207 210 212 211 203 203 202 203 206 211 215 221 226 230 233 237 240 245 239 243 246
329 330 329 334 340 336 335 334 320 307 285 279 300 294 212 219 198 207 199 200 210 211 207 208 210 214 217 218 218 205 204 206 209 213 215 221 228 231 236 240 244 246 251 252 244
327 330 327 336 340 335 335 335 315 287 231 303 292 252 210 220 199 205 207 192 209 203 215 212 205 210 215 216 215 212 207 206 213 215 218 222 229 234 237 240 246 234 234 234 237
325 331 333 334 338 336 334 322 311 291 239 297 289 226 217 212 209 218 207 206 193 203 210 214 202 209 212 214 213 209 209 210 210 215 216 221 229 227 227 210 216 218 225 233 234